Time,TemperatureF,DewpointF,PressureIn,WindDirection,WindDirectionDegrees,WindSpeedMPH,WindSpeedGustMPH,Humidity,HourlyPrecipIn,Conditions,Clouds,dailyrainin,SoftwareType,DateUTC
2013-04-21 00:06:00,26.4,15.6,30.27,North,0,0.0,-999.0,63,-99.99,,,0.00,Acu-Link.com,2013-04-21 04:06:00,
2013-04-21 00:21:00,26.2,14.6,30.29,WSW,247,3.1,-999.0,61,-99.99,,,0.00,Acu-Link.com,2013-04-21 04:21:00,
2013-04-21 00:36:00,26.1,14.5,30.29,SW,225,4.3,-999.0,61,-99.99,,,0.00,Acu-Link.com,2013-04-21 04:36:00,
2013-04-21 00:51:00,26.1,14.5,30.31,North,0,0.0,-999.0,61,-99.99,,,0.00,Acu-Link.com,2013-04-21 04:51:00,
2013-04-21 01:06:00,26.1,14.5,30.32,North,0,3.1,-999.0,61,-99.99,,,0.00,Acu-Link.com,2013-04-21 05:06:00,
2013-04-21 01:22:00,25.7,14.5,30.31,NNW,337,2.2,-999.0,62,-99.99,,,0.00,Acu-Link.com,2013-04-21 05:22:00,
2013-04-21 01:37:00,25.5,15.1,30.32,North,0,0.0,-999.0,64,-99.99,,,0.00,Acu-Link.com,2013-04-21 05:37:00,
2013-04-21 01:52:00,25.0,14.5,30.33,SSW,202,2.2,-999.0,64,-99.99,,,0.00,Acu-Link.com,2013-04-21 05:52:00,
2013-04-21 02:07:00,24.6,14.6,30.34,North,0,3.8,-999.0,65,-99.99,,,0.00,Acu-Link.com,2013-04-21 06:07:00,
2013-04-21 02:22:00,24.4,14.7,30.35,SE,135,2.2,-999.0,66,-99.99,,,0.00,Acu-Link.com,2013-04-21 06:22:00,
2013-04-21 02:38:00,23.9,13.5,30.36,SW,225,2.2,-999.0,64,-99.99,,,0.00,Acu-Link.com,2013-04-21 06:38:00,
2013-04-21 02:53:00,23.5,12.8,30.37,North,0,2.2,-999.0,63,-99.99,,,0.00,Acu-Link.com,2013-04-21 06:53:00,
2013-04-21 03:08:00,23.4,11.6,30.38,North,0,0.0,-999.0,60,-99.99,,,0.00,Acu-Link.com,2013-04-21 07:08:00,
2013-04-21 03:23:00,23.0,11.9,30.38,North,0,0.0,-999.0,62,-99.99,,,0.00,Acu-Link.com,2013-04-21 07:23:00,
2013-04-21 03:38:00,22.6,11.2,30.39,North,0,0.0,-999.0,61,-99.99,,,0.00,Acu-Link.com,2013-04-21 07:38:00,
2013-04-21 03:54:00,22.3,11.6,30.41,North,0,0.0,-999.0,63,-99.99,,,0.00,Acu-Link.com,2013-04-21 07:54:00,
2013-04-21 04:09:00,22.1,11.8,30.42,North,0,0.0,-999.0,64,-99.99,,,0.00,Acu-Link.com,2013-04-21 08:09:00,
2013-04-21 04:24:00,21.7,11.5,30.43,North,0,0.0,-999.0,64,-99.99,,,0.00,Acu-Link.com,2013-04-21 08:24:00,
2013-04-21 04:39:00,21.6,11.3,30.44,North,0,0.0,-999.0,64,-99.99,,,0.00,Acu-Link.com,2013-04-21 08:39:00,
2013-04-21 04:54:00,21.4,11.8,30.45,North,0,0.0,-999.0,66,-99.99,,,0.00,Acu-Link.com,2013-04-21 08:54:00,
2013-04-21 05:09:00,21.2,11.6,30.46,North,0,0.0,-999.0,66,-99.99,,,0.00,Acu-Link.com,2013-04-21 09:09:00,
2013-04-21 05:25:00,20.8,11.6,30.47,North,0,0.0,-999.0,67,-99.99,,,0.00,Acu-Link.com,2013-04-21 09:25:00,
2013-04-21 05:40:00,20.7,11.8,30.48,North,0,0.0,-999.0,68,-99.99,,,0.00,Acu-Link.com,2013-04-21 09:40:00,
2013-04-21 05:55:00,20.5,12.0,30.48,North,0,0.0,-999.0,69,-99.99,,,0.00,Acu-Link.com,2013-04-21 09:55:00,
2013-04-21 06:10:00,20.3,12.4,30.49,North,0,0.0,-999.0,71,-99.99,,,0.00,Acu-Link.com,2013-04-21 10:10:00,
2013-04-21 06:25:00,20.5,12.0,30.50,North,0,0.0,-999.0,69,-99.99,,,0.00,Acu-Link.com,2013-04-21 10:25:00,
2013-04-21 06:41:00,21.4,11.1,30.53,North,0,0.0,-999.0,64,-99.99,,,0.00,Acu-Link.com,2013-04-21 10:41:00,
2013-04-21 06:56:00,21.9,10.6,30.54,North,0,2.2,-999.0,61,-99.99,,,0.00,Acu-Link.com,2013-04-21 10:56:00,
2013-04-21 07:11:00,22.5,10.3,30.54,North,0,0.0,-999.0,59,-99.99,,,0.00,Acu-Link.com,2013-04-21 11:11:00,
2013-04-21 07:26:00,23.0,10.5,30.56,North,0,2.2,-999.0,58,-99.99,,,0.00,Acu-Link.com,2013-04-21 11:26:00,
2013-04-21 07:41:00,23.5,10.6,30.57,North,0,3.8,-999.0,57,-99.99,,,0.00,Acu-Link.com,2013-04-21 11:41:00,
2013-04-21 07:57:00,25.5,10.8,30.58,NE,45,0.0,-999.0,53,-99.99,,,0.00,Acu-Link.com,2013-04-21 11:57:00,
2013-04-21 08:12:00,25.0,10.3,30.58,North,0,0.0,-999.0,53,-99.99,,,0.00,Acu-Link.com,2013-04-21 12:12:00,
2013-04-21 08:27:00,25.7,9.2,30.60,ESE,112,3.8,-999.0,49,-99.99,,,0.00,Acu-Link.com,2013-04-21 12:27:00,
2013-04-21 08:42:00,27.0,10.4,30.60,ESE,112,3.1,-999.0,49,-99.99,,,0.00,Acu-Link.com,2013-04-21 12:42:00,
2013-04-21 08:58:00,28.2,11.5,30.61,East,90,2.7,-999.0,49,-99.99,,,0.00,Acu-Link.com,2013-04-21 12:58:00,
2013-04-21 09:13:00,28.8,11.1,30.62,SSW,202,3.1,-999.0,47,-99.99,,,0.00,Acu-Link.com,2013-04-21 13:13:00,
2013-04-21 09:28:00,27.9,9.3,30.62,ESE,112,2.7,-999.0,45,-99.99,,,0.00,Acu-Link.com,2013-04-21 13:28:00,
2013-04-21 09:43:00,28.9,8.2,30.63,South,180,2.7,-999.0,41,-99.99,,,0.00,Acu-Link.com,2013-04-21 13:43:00,
2013-04-21 09:58:00,29.1,8.9,30.64,North,0,3.8,-999.0,42,-99.99,,,0.00,Acu-Link.com,2013-04-21 13:58:00,
2013-04-21 10:14:00,29.1,8.4,30.64,North,0,2.2,-999.0,41,-99.99,,,0.00,Acu-Link.com,2013-04-21 14:14:00,
2013-04-21 10:29:00,32.7,9.9,30.65,NNW,337,2.7,-999.0,38,-99.99,,,0.00,Acu-Link.com,2013-04-21 14:29:00,
2013-04-21 10:44:00,34.2,8.1,30.65,ESE,112,3.1,-999.0,33,-99.99,,,0.00,Acu-Link.com,2013-04-21 14:44:00,
2013-04-21 10:59:00,32.4,10.2,30.65,South,180,2.2,-999.0,39,-99.99,,,0.00,Acu-Link.com,2013-04-21 14:59:00,
2013-04-21 11:14:00,32.9,8.9,30.66,NE,45,0.0,-999.0,36,-99.99,,,0.00,Acu-Link.com,2013-04-21 15:14:00,
2013-04-21 11:30:00,34.3,8.3,30.66,East,90,3.8,-999.0,33,-99.99,,,0.00,Acu-Link.com,2013-04-21 15:30:00,
2013-04-21 11:45:00,34.3,6.2,30.66,WNW,292,2.7,-999.0,30,-99.99,,,0.00,Acu-Link.com,2013-04-21 15:45:00,
2013-04-21 12:00:00,35.6,8.7,30.67,North,0,3.1,-999.0,32,-99.99,,,0.00,Acu-Link.com,2013-04-21 16:00:00,
2013-04-21 12:15:00,35.2,6.2,30.66,ESE,112,1.6,-999.0,29,-99.99,,,0.00,Acu-Link.com,2013-04-21 16:15:00,
2013-04-21 12:30:00,36.1,7.7,30.66,ESE,112,1.6,-999.0,30,-99.99,,,0.00,Acu-Link.com,2013-04-21 16:30:00,
2013-04-21 12:46:00,36.1,9.2,30.66,East,90,2.7,-999.0,32,-99.99,,,0.00,Acu-Link.com,2013-04-21 16:46:00,
2013-04-21 13:01:00,38.5,7.4,30.67,SW,225,3.8,-999.0,27,-99.99,,,0.00,Acu-Link.com,2013-04-21 17:01:00,
2013-04-21 13:16:00,37.8,5.1,30.67,SE,135,0.0,-999.0,25,-99.99,,,0.00,Acu-Link.com,2013-04-21 17:16:00,
2013-04-21 13:31:00,39.6,4.9,30.66,SSW,202,3.8,-999.0,23,-99.99,,,0.00,Acu-Link.com,2013-04-21 17:31:00,
2013-04-21 13:46:00,39.4,7.4,30.67,ESE,112,1.1,-999.0,26,-99.99,,,0.00,Acu-Link.com,2013-04-21 17:46:00,
2013-04-21 14:02:00,39.9,3.2,30.67,SSW,202,0.0,-999.0,21,-99.99,,,0.00,Acu-Link.com,2013-04-21 18:02:00,
2013-04-21 14:17:00,40.1,3.3,30.67,SE,135,1.6,-999.0,21,-99.99,,,0.00,Acu-Link.com,2013-04-21 18:17:00,
2013-04-21 14:32:00,39.9,9.5,30.67,SW,225,2.7,-999.0,28,-99.99,,,0.00,Acu-Link.com,2013-04-21 18:32:00,
2013-04-21 14:47:00,40.5,8.3,30.66,ENE,67,6.3,-999.0,26,-99.99,,,0.00,Acu-Link.com,2013-04-21 18:47:00,
2013-04-21 15:03:00,39.7,5.9,30.66,ENE,67,3.1,-999.0,24,-99.99,,,0.00,Acu-Link.com,2013-04-21 19:03:00,
2013-04-21 15:18:00,39.0,6.2,30.66,East,90,3.8,-999.0,25,-99.99,,,0.00,Acu-Link.com,2013-04-21 19:18:00,
2013-04-21 15:33:00,39.9,4.2,30.65,North,0,1.1,-999.0,22,-99.99,,,0.00,Acu-Link.com,2013-04-21 19:33:00,
2013-04-21 15:48:00,39.7,3.0,30.66,ESE,112,4.3,-999.0,21,-99.99,,,0.00,Acu-Link.com,2013-04-21 19:48:00,
2013-04-21 16:03:00,41.2,5.3,30.65,SE,135,0.0,-999.0,22,-99.99,,,0.00,Acu-Link.com,2013-04-21 20:03:00,
2013-04-21 16:19:00,41.5,2.4,30.65,NE,45,3.8,-999.0,19,-99.99,,,0.00,Acu-Link.com,2013-04-21 20:19:00,
2013-04-21 16:34:00,41.5,5.6,30.65,North,0,0.0,-999.0,22,-99.99,,,0.00,Acu-Link.com,2013-04-21 20:34:00,
2013-04-21 16:49:00,42.3,5.2,30.65,ENE,67,3.1,-999.0,21,-99.99,,,0.00,Acu-Link.com,2013-04-21 20:49:00,
2013-04-21 17:04:00,40.8,0.6,30.65,NNW,337,2.2,-999.0,18,-99.99,,,0.00,Acu-Link.com,2013-04-21 21:04:00,
2013-04-21 17:19:00,40.6,2.7,30.65,North,0,0.0,-999.0,20,-99.99,,,0.00,Acu-Link.com,2013-04-21 21:19:00,
2013-04-21 17:35:00,40.3,5.5,30.66,SE,135,0.0,-999.0,23,-99.99,,,0.00,Acu-Link.com,2013-04-21 21:35:00,
2013-04-21 17:50:00,40.5,4.7,30.66,NNW,337,0.0,-999.0,22,-99.99,,,0.00,Acu-Link.com,2013-04-21 21:50:00,
2013-04-21 18:05:00,39.9,6.1,30.66,NNW,337,0.0,-999.0,24,-99.99,,,0.00,Acu-Link.com,2013-04-21 22:05:00,
2013-04-21 18:20:00,39.4,10.6,30.66,NNW,337,0.0,-999.0,30,-99.99,,,0.00,Acu-Link.com,2013-04-21 22:20:00,
2013-04-21 18:35:00,38.5,7.4,30.66,NNW,337,0.0,-999.0,27,-99.99,,,0.00,Acu-Link.com,2013-04-21 22:35:00,
2013-04-21 18:51:00,37.9,6.1,30.67,NNW,337,0.0,-999.0,26,-99.99,,,0.00,Acu-Link.com,2013-04-21 22:51:00,
2013-04-21 19:06:00,37.0,7.8,30.67,NNW,337,0.0,-999.0,29,-99.99,,,0.00,Acu-Link.com,2013-04-21 23:06:00,
2013-04-21 19:21:00,36.3,5.6,30.67,NNW,337,0.0,-999.0,27,-99.99,,,0.00,Acu-Link.com,2013-04-21 23:21:00,
2013-04-21 19:36:00,35.6,5.0,30.67,NNW,337,0.0,-999.0,27,-99.99,,,0.00,Acu-Link.com,2013-04-21 23:36:00,
2013-04-21 19:51:00,34.9,5.1,30.68,NNW,337,0.0,-999.0,28,-99.99,,,0.00,Acu-Link.com,2013-04-21 23:51:00,
2013-04-21 20:07:00,33.8,16.2,30.68,NNW,337,0.0,-999.0,48,-99.99,,,0.00,Acu-Link.com,2013-04-22 00:07:00,
2013-04-21 20:22:00,32.0,15.9,30.69,NNW,337,0.0,-999.0,51,-99.99,,,0.00,Acu-Link.com,2013-04-22 00:22:00,
2013-04-21 20:37:00,30.9,12.1,30.69,NNW,337,0.0,-999.0,45,-99.99,,,0.00,Acu-Link.com,2013-04-22 00:37:00,
2013-04-21 20:52:00,29.8,14.4,30.70,NNW,337,0.0,-999.0,52,-99.99,,,0.00,Acu-Link.com,2013-04-22 00:52:00,
2013-04-21 21:07:00,28.9,16.8,30.70,NNW,337,0.0,-999.0,60,-99.99,,,0.00,Acu-Link.com,2013-04-22 01:07:00,
2013-04-21 21:23:00,28.4,13.5,30.70,NNW,337,0.0,-999.0,53,-99.99,,,0.00,Acu-Link.com,2013-04-22 01:23:00,
2013-04-21 21:38:00,28.4,14.7,30.71,NNW,337,0.0,-999.0,56,-99.99,,,0.00,Acu-Link.com,2013-04-22 01:38:00,
2013-04-21 21:53:00,27.5,16.2,30.72,NNW,337,0.0,-999.0,62,-99.99,,,0.00,Acu-Link.com,2013-04-22 01:53:00,
2013-04-21 22:08:00,27.0,16.8,30.72,NNW,337,0.0,-999.0,65,-99.99,,,0.00,Acu-Link.com,2013-04-22 02:08:00,
2013-04-21 22:23:00,26.8,16.6,30.72,NNW,337,0.0,-999.0,65,-99.99,,,0.00,Acu-Link.com,2013-04-22 02:23:00,
2013-04-21 22:39:00,26.2,16.8,30.72,NNW,337,0.0,-999.0,67,-99.99,,,0.00,Acu-Link.com,2013-04-22 02:39:00,
2013-04-21 22:54:00,25.9,15.8,30.73,NNW,337,0.0,-999.0,65,-99.99,,,0.00,Acu-Link.com,2013-04-22 02:54:00,
2013-04-21 23:09:00,25.3,16.9,30.73,NNW,337,0.0,-999.0,70,-99.99,,,0.00,Acu-Link.com,2013-04-22 03:09:00,
2013-04-21 23:24:00,25.5,14.7,30.73,NNW,337,0.0,-999.0,63,-99.99,,,0.00,Acu-Link.com,2013-04-22 03:24:00,
2013-04-21 23:39:00,24.4,17.4,30.73,NNW,337,0.0,-999.0,74,-99.99,,,0.00,Acu-Link.com,2013-04-22 03:39:00,
2013-04-21 23:55:00,23.9,16.5,30.72,NNW,337,0.0,-999.0,73,-99.99,,,0.00,Acu-Link.com,2013-04-22 03:55:00,